This demonstration page uses our WeatherBlox Daily Observations layout. Learn more.

Left ArrowRight Arrow

Hourly Observations for June 23, 2021

Temp ( °F °C ) Dew Point ( °F °C ) Humidity (%) Winds ( mph kmh ) Pressure ( in mb ) Visibility ( mi km ) Precip ( " mm )
12:51 am 00:51 Mostly Clear 85 29.4 47 8.3 27 27 N 8 13 29.74 1007 10 16 N/A
1:51 am 01:51 Clear 85 29.4 48 8.9 28 28 NNW 6 9 29.75 1007 10 16 N/A
2:51 am 02:51 Clear 85 29.4 47 8.3 27 27 WNW 12 19 29.75 1007 10 16 N/A
3:51 am 03:51 Clear 82 27.8 47 8.3 29 29 NW 9 15 29.74 1007 10 16 N/A
4:51 am 04:51 Clear 83 28.3 47 8.3 28 28 NW 10 17 29.75 1007 10 16 N/A
5:51 am 05:51 Sunny 81 27.2 48 8.9 32 32 WNW 9 15 29.77 1008 10 16 N/A
6:51 am 06:51 Sunny 83 28.3 48 8.9 30 30 NW 9 15 29.78 1009 10 16 N/A
7:51 am 07:51 Sunny 88 31.1 48 8.9 25 25 WNW 14 22 29.79 1009 10 16 N/A
8:51 am 08:51 Sunny 91 32.8 48 8.9 23 23 WNW 17 28 29.78 1008 10 16 N/A
9:51 am 09:51 Sunny 94 34.4 48 8.9 21 21 W 20 31 29.76 1008 10 16 N/A
10:51 am 10:51 Sunny 96 35.6 48 8.9 19 19 WNW 21 33 29.75 1007 10 16 N/A
11:51 am 11:51 Sunny 98 36.7 48 8.9 18 18 WNW 15 24 29.74 1007 10 16 N/A
12:51 pm 12:51 Sunny 101 38.3 48 8.9 17 17 NW 20 31 29.72 1007 10 16 N/A
1:51 pm 13:51 Sunny 102 38.9 48 8.9 16 16 WNW 16 26 29.71 1006 10 16 N/A
2:51 pm 14:51 Cloudy 101 38.3 48 8.9 17 17 WNW 10 17 29.69 1006 10 16 N/A
3:51 pm 15:51 Mostly Sunny 99 37.2 49 9.4 18 18 WNW 14 22 29.69 1006 10 16 N/A
4:51 pm 16:51 Partly Cloudy 97 36.1 49 9.4 20 20 WNW 26 43 29.68 1005 10 16 N/A
5:51 pm 17:51 Mostly Cloudy 93 33.9 50 10 23 23 NW 25 41 29.74 1007 10 16 N/A
6:51 pm 18:51 Partly Cloudy 89 31.7 54 12.2 30 30 WNW 20 31 29.75 1008 10 16 N/A
7:51 pm 19:51 Clear 88 31.1 51 10.6 28 28 NW 14 22 29.75 1008 10 16 N/A
8:51 pm 20:51 Clear 86 30 54 12.2 33 33 NW 15 24 29.78 1008 10 16 N/A
9:51 pm 21:51 Mostly Cloudy 84 28.9 55 12.8 37 37 N 13 20 29.83 1010 10 16 N/A
10:51 pm 22:51 Mostly Cloudy 84 28.9 55 12.8 37 37 NNW 10 17 29.83 1010 10 16 N/A
11:51 pm 23:51 Mostly Clear 83 28.3 55 12.8 38 38 NW 8 13 29.82 1010 10 16 N/A

Powered by AerisWeather